Location: Melbourne
(37.8170°S, 144.9670°E)
Time: 18:21:28
(UTC+11:00)

Daily predictions for brighter satellites

Satellite Brightness Start Highest point End
(mag) Time Altitude Azimuth Time Altitude Azimuth Time Altitude Azimuth
Helios 1B rocket 2.7 21:07:45 10° NNE 21:11:49 54° ESE 21:15:56 10° S
Cosmos 1939 Rocket 4.4 21:12:42 10° SE 21:15:46 20° E 21:18:46 10° NE
Cosmos 1452 Rocket 4.0 21:11:06 10° SSW 21:16:21 63° WNW 21:21:32 10° N
Cosmos 2333 Rocket 2.4 21:11:32 10° SSW 21:17:15 78° WNW 21:22:56 10° NNE
ARGOS Delta rocket 4.4 21:12:58 10° N 21:18:21 76° W 21:23:57 10° SSW
Genesis I 3.3 21:15:46 10° SSW 21:19:34 61° ESE 21:23:18 10° NE
COSMOS 2428 4.1 21:14:54 10° SW 21:20:08 37° WNW 21:25:19 10° N
BREEZE-M DEB 3.4 21:17:58 10° SW 21:20:10 73° SE 21:22:32 11° ENE
SJ-6B 2.8 21:16:11 10° SSE 21:20:12 80° ENE 21:24:14 10° N
GPS 2-05 Rocket1 2.7 21:18:26 10° WNW 21:21:33 57° N 21:24:44 10° E
Cosmos 2292 Rocket 3.2 21:21:18 10° N 21:24:37 61° E 21:28:52 10° SSE
Resurs 1-3 4.3 21:21:05 10° SSE 21:25:09 34° E 21:29:10 10° NNE
Cosmos 1953 Rocket 3.7 21:23:00 10° S 21:27:28 82° W 21:31:55 10° N
Cosmos 921 Rocket 3.4 21:23:48 10° SSW 21:28:20 69° WNW 21:32:47 10° N
Lacrosse 5 3.3 21:24:24 10° WNW 21:29:17 43° SW 21:34:13 10° SSE
H-2A R/B 4.3 21:25:55 10° S 21:29:37 39° WSW 21:33:13 10° NW
USA 186 2.0 21:28:54 10° SSE 21:31:58 45° E 21:34:59 10° N
Cosmos 2219 Rocket 3.1 21:26:57 10° SW 21:32:21 47° WNW 21:37:40 10° N
USA 238 DEB 4.1 21:26:20 10° N 21:33:09 46° ENE 21:39:58 10° SE
USA 238 4.1 21:26:27 10° N 21:33:16 46° ENE 21:40:04 10° SE
OAO 3 Rocket 3.6 21:29:17 10° NW 21:33:58 44° NNE 21:38:43 10° E
USA 215 4.1 21:30:01 10° ESE 21:35:25 26° NE 21:40:46 10° N
Cosmos 2082 3.9 21:32:15 10° NNW 21:37:56 83° WSW 21:43:45 10° SSE
Cosmos 1707 4.1 21:34:42 10° SSW 21:38:26 40° W 21:42:05 10° NNW
Cosmos 1709 Rocket 4.3 21:33:18 10° NNE 21:39:26 50° E 21:45:35 10° SSE
YAOGAN 6 3.3 21:40:03 10° SSE 21:43:26 35° E 21:46:01 15° NNE
Cosmos 2237 Rocket 2.5 21:43:08 10° SSW 21:48:49 69° WNW 21:54:19 11° N
Cosmos 2227 Rocket 3.2 21:44:42 10° NW 21:50:11 51° WSW 21:55:45 10° SSE
Cosmos 1242 Rocket 2.7 21:47:01 10° N 21:50:38 58° E 21:54:20 10° SSE
Meteor 1-29 3.5 21:51:14 10° N 21:54:34 56° W 21:58:00 10° SSW
Spot 2 Rocket 3.5 21:52:54 10° SSE 21:58:02 62° ENE 22:03:06 10° N
ATLAS 5 CENTAUR R/B 2.4 21:55:20 10° SW 22:00:17 52° WNW 22:03:50 16° N
Resurs 01 Rocket 1.6 21:56:26 10° SSE 22:00:58 90° WNW 22:05:26 10° NNW
DMSP B5D2-2 4.1 21:56:24 14° NNE 22:01:00 83° ESE 22:06:23 10° S
NOSS 3-2 (A) 4.3 21:56:03 10° N 22:03:45 45° ENE 22:11:00 10° SE
Cosmos 1331 Rocket 4.1 21:59:32 10° SSW 22:04:53 67° ESE 22:08:22 22° NNE
Cosmos 1110 Rocket 4.0 22:00:38 10° SSW 22:06:02 79° ESE 22:09:43 21° NNE
Cosmos 1953 2.6 22:08:01 23° NNE 22:10:22 52° E 22:14:23 10° SSE
Cosmos 2251 Rocket 3.4 22:09:13 10° N 22:14:26 74° ENE 22:19:45 10° SSE
ATLAS 3B R/B 2.7 22:09:48 10° NNW 22:16:28 90° ENE 22:23:30 10° SSE
Cosmos 2297 Rocket 3.8 22:11:48 10° NW 22:17:01 37° WSW 22:22:18 10° S
Cosmos 494 Rocket 4.5 22:16:55 10° NNW 22:22:03 61° WSW 22:27:13 10° S
Tiangong 1 1.9 22:21:23 10° W 22:23:49 39° SSW 22:25:18 19° SE
Cosmos 1758 3.4 22:23:29 18° NNW 22:26:24 75° W 22:30:28 10° S
Cosmos 724 4.4 22:20:43 10° NNW 22:26:43 84° WSW 22:32:54 10° SSE
ERBS 2.3 22:26:39 10° SW 22:30:13 89° NW 22:31:02 51° NE
Cosmos 2227 4.2 22:30:25 18° N 22:34:33 62° ENE 22:40:09 10° SSE
CZ-2C R/B 3.7 22:33:47 24° ENE 22:36:03 33° ESE 22:41:04 10° S
Cosmos 1400 Rocket 3.8 22:33:27 10° SSE 22:37:06 31° ESE 22:37:35 30° E
Cosmos 1461 4.5 22:34:32 10° S 22:37:35 21° SE 22:38:44 19° ESE
Cosmos 2184 Rocket 4.1 22:35:44 27° NNE 22:39:17 61° E 22:45:39 10° SSE
Cosmos 1812 Rocket 4.4 22:38:35 13° NNW 22:42:28 49° W 22:46:51 10° S
SL-16 R/B 2.6 22:38:38 10° SSW 22:44:14 58° WNW 22:47:12 27° N
SPOT 5 4.1 22:42:19 10° SE 22:46:59 28° E 22:47:24 28° ENE
ARGOS 3.4 22:44:07 10° SSE 22:49:24 49° E 22:50:51 39° NE
Cosmos 1076 Rocket 3.5 22:47:18 10° S 22:51:36 62° E 22:52:20 52° NE
Cosmos 1470 3.1 22:51:08 34° NNW 22:52:43 65° W 22:56:46 10° S
Cosmos 1603 4.0 22:47:17 10° SSW 22:52:49 54° ESE 22:54:45 37° ENE
Lacrosse 4 Rocket 1.7 22:49:09 10° SSW 22:53:40 62° ESE 22:54:38 49° ENE
SL-08 RB Rocket 4.1 22:50:10 10° SSE 22:54:42 44° E 22:55:08 43° ENE
Cosmos 2263 Rocket 2.8 22:54:18 35° ENE 22:54:45 35° ENE 22:59:54 10° SE
H-2A R/B 2.6 22:51:31 10° SSE 22:56:45 42° E 22:57:39 39° ENE
Cosmos 2327 Rocket 4.4 22:54:24 33° N 22:57:18 75° E 23:03:29 10° S
Cosmos 1733 4.2 22:55:27 25° NW 22:57:22 45° W 23:01:11 10° S
Cosmos 1315 Rocket 4.1 22:55:07 10° SSE 22:58:44 28° ESE 22:58:44 28° ESE
GPS 2-05 Rocket1 4.3 22:55:47 10° W 22:57:24 25° WNW 22:57:24 25° WNW
CENTAUR R/B 3.6 22:59:16 31° NE 23:00:20 33° ENE 23:06:46 10° SE
Okean 3 Rocket 3.5 22:56:41 10° S 23:01:10 89° E 23:02:04 57° N
Cosmos 1328 4.5 22:57:34 10° S 23:01:18 40° ESE 23:01:18 40° ESE
Meteor 2-8 Rocket 4.4 22:56:03 10° S 23:02:14 84° E 23:04:39 39° NNE
Helios 1A 2.9 22:58:15 10° SSE 23:02:32 78° ENE 23:03:12 61° N
Cosmos 1674 4.2 23:00:50 10° SSW 23:04:16 31° W 23:05:37 24° NW
Cosmos 1408 Rocket 4.0 23:03:07 10° S 23:07:30 46° E 23:07:46 46° E
BREEZE-M DEB (TANK) 2.7 23:06:01 10° SW 23:08:33 58° SE 23:09:29 44° E
SL-19 R/B 4.4 23:07:10 39° N 23:09:37 82° WNW 23:15:31 10° SSW
MetOp-A 4.0 23:04:50 10° SSE 23:10:17 85° ENE 23:12:13 42° N
Meteor 1-16 Rocket 4.0 23:12:02 51° NNE 23:13:23 75° E 23:18:46 10° SSE
Meteor 2-19 Rocket 4.4 23:14:05 34° NNW 23:16:54 81° W 23:23:06 10° S
OAO 3 Rocket 3.2 23:12:22 10° W 23:17:18 64° N 23:17:23 64° N
Cosmos 1766 Rocket 3.5 23:13:59 10° S 23:18:31 73° E 23:18:48 70° ENE
USA 215 3.4 23:12:07 10° SE 23:18:45 77° SW 23:25:19 10° NW
SL-14 R/B 3.3 23:15:16 10° S 23:19:13 74° W 23:19:14 74° W
Cosmos 1610 Rocket 4.5 23:18:51 39° N 23:21:28 90° W 23:27:56 10° S
Terra 3.3 23:18:23 10° SE 23:21:22 23° ESE 23:21:22 23° ESE
Cosmos-2242 2.8 23:22:25 82° NNW 23:22:36 88° W 23:26:58 10° S
Nadezhda 3 Rocket 4.1 23:17:47 10° S 23:24:01 63° E 23:25:30 49° NE
H-2A R/B 3.2 23:04:47 10° W 23:25:11 45° NNW 23:26:32 40° N
deb Chang Zheng 4 3.5 23:26:32 70° ESE 23:26:33 70° ESE 23:30:55 10° S
ERS-1 Rocket 3.1 23:23:13 10° S 23:28:19 71° WSW 23:29:53 44° NW
Cosmos 1943 3.4 23:24:05 10° SSW 23:29:46 59° ESE 23:30:54 49° ENE
Cosmos 1842 Rocket 4.4 23:32:31 40° ESE 23:32:31 40° ESE 23:36:09 10° SSE
Cosmos 1703 4.3 23:31:02 10° S 23:34:03 38° SE 23:34:03 38° SE
Cosmos 407 Rocket 3.9 23:35:49 48° E 23:35:49 48° E 23:40:45 10° SSE
Cosmos 1809 Rocket 4.4 23:39:01 57° NNE 23:40:07 69° E 23:46:14 10° SSE
CZ-4B R/B 3.4 23:42:57 65° NW 23:43:27 70° WNW 23:48:35 10° SSW
USA 267 4.3 23:44:37 17° E 23:49:08 39° SSE 23:55:11 10° SSW
NOSS 2-1 (C) 4.3 23:44:20 10° SW 23:51:24 65° WNW 23:52:06 60° NNW
Cosmos 1844 Rocket 4.4 23:52:51 19° E 23:52:51 19° E 23:55:38 10° SE
NOSS 2-1 (D) 4.3 23:44:38 10° SW 23:51:38 63° WNW 23:52:17 59° NNW
CARTOSAT-1 4.3 23:49:23 10° SSE 23:52:43 45° SE 23:52:43 45° SE
